Location: Lane
(33.5226°N, 79.8788°W)
Time: 09:25:23
(UTC+00:00)

Explorer 7 - Pass Details

Date: 09 October 2022
Orbit: 481 x 665 km, 50.3° (Epoch: 28 November)

Event Time Altitude Azimuth Distance (km) Brightness Sun altitude
Rises 18:13:32 0° 320° (NW) 2,989 10.4 47.0°
Reaches altitude 10° 18:16:40 10° 340° (NNW) 2,056 9.5 46.7°
Maximum altitude 18:19:48 17° 21° (NNE) 1,603 8.9 46.4°
Drops below altitude 10° 18:22:51 10° 63° (ENE) 1,994 9.4 46.1°
Sets 18:25:49 0° 84° (E) 2,861 10.2 45.8°
